Location: Asni�res
(49.1337°N, 2.3555°E)
Time: 10:09:23
(UTC+00:00)

Cosmos 1626 Rocket - Pass Details

Date: 04 June 2022
Orbit: 602 x 631 km, 82.5° (Epoch: 30 June)

Event Time Altitude Azimuth Distance (km) Brightness Sun altitude
Exits shadow 03:04:25 - 200° (SSW) 2,362 6.0 -6.3°
Reaches altitude 10° 03:05:24 10° 202° (SSW) 1,969 5.6 -6.2°
Maximum altitude 03:09:42 59° 282° (WNW) 710 3.7 -5.7°
Drops below altitude 10° 03:14:01 10° 3° (N) 1,969 6.9 -5.2°
Sets 03:16:16 0° 7° (N) 2,875 7.9 -4.9°
